User: anonymous   Login
Location: Banios
(43.0451°N, 0.2335°E)
Time: 10:33:59
(UTC+00:00)
Language:

Cosmos 1980 - Orbit

View from above orbital plane
View from above orbital plane
View from above satellite
View from above satellite

Ground track
Ground track

The orbit data is extracted from the following two-line orbital elements,

1 19649U 88102A   21112.86404611  .00000035  00000-0  42932-4 0  9997
2 19649  71.0016 355.3668 0006389 319.2489  40.8154 14.14724782673372
Epoch (UTC): 22 April 2021 20:44:13
Eccentricity: 0.0006389
inclination: 71.0016°
perigee height: 838 km
apogee height: 848 km
right ascension of ascending node: 355.3668°
argument of perigee: 319.2489°
revolutions per day: 14.14724782
mean anomaly at epoch: 40.8154°
orbit number at epoch: 67337

The dashed part of the orbit path shows where the satellite is in the earth's shadow,  

DLR